THORAD AGENA D DEB

Satellite information

Favourite Embed

Satellite Type and Status

DEBRISIN ORBIT

Key statistics

Satellite THORAD AGENA D DEB at a glance.

Uptime

20339

Days in orbit

Revolutions

≈ 13.9

Per day

Orbit

SSO

Sun Synchronous Orbit

Inclination

100.0

Latest

Satellite identification and parameters

Extended collection of information and parameters for THORAD AGENA D DEB.

Object identification

Identified? True

Debris? True

Object name: THORAD AGENA D DEB

International designator: 1970-025NR

Object number (NORAD): 13518

Object ID (CCSDS): 13518

Country: UNITED STATES OF AMERICA (US)

Current information (Y/N): Y

RCS size: SMALL

Orbital parameters

Period: 103.73 minutes

Inclination: 100.0348 deg

SMA: 7313.033 km

Apoapsis: 937.85 km

Periapsis: 931.946 km

RAAN: 123.6765 deg

Eccentricy: 0.00040364

Argument of periapsis: 251.6624 deg

Mean anomaly: 137.5653 deg

Mean motion: 13.88214224 rev/day

Mean motion (dot): 0.00002501 rev/day2

B* drag term: 0.0021334923 1/REarth

Two-line elements (TLE)

Creation date: Dec. 13, 2025, 5:47 p.m.

Reference frame: TEME

Reference center: EARTH

Epoch: Dec. 13, 2025, 8:12 a.m. UTC

TLE line 0: 0 THORAD AGENA D DEB

TLE line 1: 1 13518U 70025NR 25347.34228071 .00002501 00000-0 21335-2 0 9994

TLE line 2: 2 13518 100.0348 123.6765 0004036 251.6624 137.5653 13.88214224224569

Live tracking on map

Real-time ground track for satellite THORAD AGENA D DEB.

In-orbit conjunctions

A list of the most updated potential collisions computed for object THORAD AGENA D DEB.

Target Orbit TCA Probability of collision Miss distance Type
THOR ABLESTAR DEB LEO 2025-05-02 00:57:07 0.000404028 71.0 (m) DEBRIS
THOR ABLESTAR DEB LEO 2024-09-20 21:41:23 0.0002380753 54.0 (m) DEBRIS

Associated space launch

Meteorological research and development satellite

THORAD AGENA D DEB was lifted into orbit during the mission ‘Thorad SLV-2G Agena D | Nimbus 4’, on board a Thorad SLV-2G Agena D space rocket.

The launch took place on April 8, 1970, 8:17 a.m. from Space Launch Complex 2E.

For more information about the launch, click the button.

Launch to space Thorad SLV-2G Agena D | Nimbus 4
Thorad SLV-2G Agena D | Nimbus 4

Agency: N/A

Status: Launch Successful

Launch date: April 8, 1970, 8:17 a.m. UTC

Rocket: Thorad SLV-2G Agena D

Launch pad: Space Launch Complex 2E

Location: Vandenberg SFB, CA, USA

...

Latest news about this satellite

There are no fresh news available about this satellite. Check back as we update our databases every day.


Newsletter sign-up

Weekly statistics, charts and insights to help you stay on top of the space industry.